This demonstration page uses our WeatherBlox Daily Observations layout. Learn more.

Hourly Observations for February 25, 2020

Temp ( °F °C ) Dew Point ( °F °C ) Humidity (%) Winds ( mph kmh ) Pressure ( in mb ) Visibility ( mi km ) Precip ( " mm )
12:54 am 00:54 Mostly Clear 28 -2.2 22 -5.6 78 78 NE 5 7 29.98 1015 10 16.0934 0 0
1:54 am 01:54 Partly Cloudy 29 -1.7 24 -4.4 82 82 N 9 15 30 1016 10 16.0934 0 0
2:54 am 02:54 Mostly Cloudy 29 -1.7 24 -4.4 82 82 N 7 11 29.99 1016 10 16.0934 0 0
3:54 am 03:54 Partly Cloudy 28 -2.2 24 -4.4 85 85 N 10 17 29.99 1016 10 16.0934 0 0
4:54 am 04:54 Partly Cloudy 30 -1.1 25 -3.9 82 82 NNE 13 20 30 1016 10 16.0934 0 0
5:54 am 05:54 Mostly Cloudy 31 -0.6 25 -3.9 79 79 NNE 13 20 30.03 1017 10 16.0934 0 0
6:54 am 06:54 Cloudy 32 0 25 -3.9 75 75 N 15 24 30.06 1018 10 16.0934 0 0
7:54 am 07:54 Cloudy 33 0.6 25 -3.9 72 72 N 13 20 30.09 1019 10 16.0934 0 0
8:54 am 08:54 Cloudy 34 1.1 25 -3.9 70 70 N 18 30 30.12 1020 10 16.0934 0 0
9:54 am 09:54 Mostly Cloudy 37 2.8 24 -4.4 59 59 N 21 33 30.14 1021 10 16.0934 0 0
10:54 am 10:54 Mostly Sunny 41 5 25 -3.9 53 53 N 18 30 30.15 1021 10 16.0934 0 0
11:54 am 11:54 Mostly Cloudy 42 5.6 24 -4.4 49 49 N 18 30 30.19 1022 10 16.0934 0 0
12:54 pm 12:54 Mostly Cloudy 42 5.6 24 -4.4 49 49 N 23 37 30.19 1022 10 16.0934 0 0
1:54 pm 13:54 Mostly Cloudy 42 5.6 24 -4.4 49 49 N 22 35 30.2 1023 10 16.0934 0 0
2:54 pm 14:54 Mostly Cloudy 40 4.4 24 -4.4 53 53 NNE 24 39 30.22 1024 10 16.0934 0 0
3:54 pm 15:54 Cloudy 39 3.9 24 -4.4 55 55 NNE 23 37 30.25 1024 10 16.0934 0 0
4:54 pm 16:54 Mostly Cloudy 38 3.3 24 -4.4 57 57 N 21 33 30.27 1025 10 16.0934 0 0
5:54 pm 17:54 Mostly Cloudy 37 2.8 20 -6.7 50 50 N 26 43 30.3 1026 10 16.0934 0 0
6:54 pm 18:54 Mostly Clear 35 1.7 18 -7.8 50 50 N 22 35 30.34 1027 10 16.0934 0 0
7:54 pm 19:54 Clear 33 0.6 19 -7.2 56 56 N 15 24 30.37 1028 10 16.0934 0 0
8:54 pm 20:54 Clear 33 0.6 22 -5.6 64 64 N 21 33 30.37 1028 10 16.0934 0 0
9:54 pm 21:54 Mostly Clear 31 -0.6 22 -5.6 69 69 N 26 43 30.39 1029 10 16.0934 0 0
10:54 pm 22:54 Mostly Clear 30 -1.1 22 -5.6 72 72 N 17 28 30.4 1029 10 16.0934 0 0
11:15 pm 23:15 Mostly Cloudy 32 0 22 -5.6 66 66 N 20 31 30.43 1030 10 16.0934 0 0
11:54 pm 23:54 Cloudy 31 -0.6 21 -6.1 67 67 N 23 37 30.41 1030 10 16.0934 0 0

Powered by AerisWeather